Location: Kuffner-Sternwarte
(48.2130°N, 16.2960°E)
Time: 15:38:40
(UTC+02:00)

COROT - Pass Details

Date: 16 May 2026
Orbit: 594 x 855 km, 90.1° (Epoch: 21 May)

Event Time Altitude Azimuth Distance (km) Brightness Sun altitude
Rises 00:55:13 0° 351° (N) 3,329 10.7 -22.7°
Reaches altitude 10° 00:58:08 10° 336° (NNW) 2,352 9.4 -22.7°
Maximum altitude 01:01:59 21° 289° (WNW) 1,637 7.8 -22.7°
Enters shadow 01:04:05 17° 256° (WSW) 1,831 7.8 -22.7°
